Vorticity
4 4 2 -6 -7 -3 1 9 9 8 6 5 5 5 5 4 5 5 6 7 8 8
-7 10 2 18 11 6 12 12 10 8 7 6 6 5 5 5 5 4 5 5 5 5
3 3 3 5 7 12 17 15 11 9 8 7 6 6 6 5 5 5 5 5 5 5
3 2 5 8 4 7 12 11 9 9 8 7 6 6 6 6 5 5 6 5 6 6
6 8 5 5 1 4 10 7 10 10 8 7 6 6 6 6 6 6 6 6 6 6
5 7 3 2 4 6 10 9 7 9 10 8 7 6 6 6 6 6 6 6 6 6
9 7 7 6 4 5 11 8 6 7 8 8 8 7 6 6 6 5 5 5 6 7
10 8 5 5 10 12 9 8 8 8 7 8 8 7 7 6 6 5 5 4 6 7
11 8 7 5 3 5 8 7 8 9 9 9 8 7 6 6 6 6 6 6 7 8
9 10 12 11 9 12 14 14 13 12 11 10 10 9 7 7 7 8 8 7 8 8
10 10 12 12 12 12 10 8 8 8 8 8 9 10 11 11 9 8 8 9 10 10
12 11 10 8 8 10 11 11 11 11 11 11 10 10 10 10 10 10 10 11 12 14
12 13 14 13 13 13 13 13 14 14 15 15 15 15 14 13 11 10 8 8 8 7
12 12 13 11 11 9 8 8 9 9 11 12 14 13 14 15 15 15 16 15 15 15
Height
3084 3084 3083 3083 3082 3080 3079 3078 3077 3076 3075 3074 3072 3070 3068 3067 3065 3063 3060 3058 3055 3053
3076 3077 3076 3075 3075 3074 3071 3069 3069 3067 3066 3065 3064 3063 3061 3059 3057 3054 3053 3051 3049 3046
3070 3069 3068 3067 3067 3065 3063 3061 3060 3059 3057 3056 3055 3053 3052 3050 3049 3047 3045 3043 3042 3039
3061 3060 3059 3057 3056 3055 3054 3052 3051 3049 3048 3046 3045 3044 3043 3041 3039 3038 3036 3034 3032 3030
3052 3051 3049 3047 3046 3045 3043 3042 3041 3040 3038 3037 3035 3034 3032 3031 3029 3027 3026 3023 3021 3020
3039 3038 3037 3036 3035 3034 3033 3032 3030 3029 3028 3026 3024 3023 3021 3019 3018 3015 3014 3012 3011 3009
3027 3026 3026 3025 3023 3022 3021 3020 3018 3016 3015 3014 3012 3011 3008 3006 3004 3002 3001 3000 2999 2998
3016 3015 3014 3013 3012 3010 3008 3006 3005 3004 3002 3001 2999 2997 2995 2992 2990 2988 2987 2987 2986 2985
3005 3004 3002 3001 2999 2997 2995 2993 2991 2989 2988 2987 2985 2983 2981 2977 2974 2973 2971 2971 2973 2971
2995 2993 2990 2988 2986 2983 2981 2978 2976 2975 2972 2971 2971 2968 2965 2963 2958 2955 2955 2955 2954 2953
2982 2979 2977 2974 2972 2969 2967 2964 2962 2961 2958 2955 2955 2952 2950 2947 2942 2939 2938 2937 2936 2934
2970 2967 2965 2962 2959 2956 2953 2951 2947 2945 2943 2940 2939 2936 2933 2930 2926 2923 2922 2921 2919 2916
2957 2954 2952 2948 2946 2942 2939 2936 2933 2931 2928 2925 2922 2920 2916 2913 2908 2905 2904 2904 2903 2901
2943 2940 2937 2935 2931 2928 2925 2921 2918 2915 2914 2910 2906 2903 2899 2897 2891 2887 2884 2883 2884 2884